sat.trackr.live / text

‹ back to catalog

STARLINK-3647

NORAD 51994 · 2022-025AQ

PAYLOAD ACTIVE UNKNOWN

§ Identity

Operator
Country
US
Launch date
2022-03-09
Launch site
AFETR
Launch vehicle
Mass (kg)
RCS (m²)

Purposes: comms

External: N2YO · Heavens-Above · Gunter

§ Orbital elements

Epoch: 2026-05-25T02:32:41.783424Z

Period
95.43 min
Inclination
53.2127°
Eccentricity
0.0001738
Mean motion
15.08880470 rev/d
Perigee alt
538.4 km
Apogee alt
540.8 km
Semi-major
6,917.8 km
B*
-5.1264e-4
RAAN
36.0742°
Arg perigee
91.8576°
Mean anomaly
268.2615°
Rev number
23,245

§ Raw data

STARLINK-36471 51994U 22025AQ  26145.10603916 -.00008447  00000+0 -51264-3 0  99982 51994  53.2127  36.0742 0001738  91.8576 268.2615 15.08880470232454

JSON: /api/v1/satellites/51994 · /tle

For live sub-satellite position, see the globe view (requires WebGL).

§ Visibility from observer

Set your observer location to see the next 7 days of passes ≥ 10°. The values pass through the URL so the page stays shareable.

No JS? Fill the form by hand. The geolocation button needs JavaScript.